Location: ?????????
(54.7630°N, 39.4991°E)
Time: 08:04:03
(UTC+00:00)

H-2A R/B - Pass Details

Date: 14 April 2026
Orbit: 478 x 548 km, 98.3° (Epoch: 12 May)

Event Time Altitude Azimuth Distance (km) Brightness Sun altitude
Exits shadow 23:13:11 13° 124° (ESE) 1,555 4.6 -21.5°
Maximum altitude 23:16:02 31° 64° (ENE) 896 3.9 -21.3°
Drops below altitude 10° 23:19:16 10° 1° (N) 1,697 5.7 -21.0°
Sets 23:21:28 0° 351° (N) 2,574 6.5 -20.9°
